Location: Newark
(50.2919°N, 19.2528°E)
Time: 01:30:48
(UTC+00:00)

Envisat - Visible Passes

Search period start: 01 October 2020 00:00
Search period end: 11 October 2020 00:00
Orbit: 764 x 766 km, 98.1° (Epoch: 30 September)

Date Brightness Start Highest point End Pass type
(mag) Time Alt. Az. Time Alt. Az. Time Alt. Az.
02 Oct 5.1 04:09:02 10° NNE 04:13:37 33° E 04:18:11 10° SSE visible
02 Oct 6.1 17:08:57 10° SW 17:12:34 19° W 17:16:11 10° NW visible
03 Oct 6.1 03:33:09 10° NE 03:36:26 17° E 03:39:42 10° SE visible
04 Oct 6.6 17:36:39 10° WSW 17:38:22 12° W 17:40:06 10° WNW visible
05 Oct 5.5 03:57:50 10° NE 04:02:10 27° E 04:06:27 10° SSE visible
05 Oct 5.8 16:57:01 10° SW 17:01:04 24° W 17:05:08 10° NW visible
06 Oct 6.3 03:22:21 10° NE 03:24:55 14° E 03:27:26 10° ESE visible
07 Oct 6.3 17:24:05 10° WSW 17:26:50 15° W 17:29:36 10° NW visible
08 Oct 5.8 03:46:43 10° NE 03:50:41 22° E 03:54:37 10° SE visible
08 Oct 5.4 16:45:13 10° SSW 16:49:36 29° W 16:54:00 10° NNW visible
09 Oct 6.6 03:12:04 10° ENE 03:13:22 11° E 03:14:39 10° E visible
10 Oct 4.9 04:11:40 10° NNE 04:16:21 36° E 04:21:01 10° SSE visible
10 Oct 6.2 17:11:54 10° SW 17:15:19 18° W 17:18:45 10° NW visible
